Location: Bednik
(45.3500°N, 16.3833°E)
Time: 09:59:05
(UTC+00:00)

Cosmos 540 Rocket - Pass Details

Date: 08 August 2020
Orbit: 740 x 754 km, 74.1° (Epoch: 20 September)

Event Time Altitude Azimuth Distance (km) Brightness Sun altitude
Rises 21:35:51 0° 338° (NNW) 3,210 8.1 -25.9°
Reaches altitude 10° 21:38:13 10° 339° (NNW) 2,283 7.0 -26.1°
Enters shadow 21:43:23 89° 23° (NNE) 760 3.3 -26.4°
